Regional Weather Roundup
Issued by NWS

Home | Current Version | Previous Version | Text Only | Print | Product List | Glossary On
Versions: 1 2 3 4 5 6 7 8 9 10 11 12 13 14 15 16 17 18 19 20 21 22 23 24 25 26 27 28 29 30 31 32 33 34 35 36 37 38 39 40 41 42 43 44 45 46 47 48 49 50
000
ASUS43 KDMX 260606
RWRIA

WEATHER ROUNDUP FOR IOWA
NATIONAL WEATHER SERVICE DES MOINES IA
100 AM CDT TUE SEP 26 2017

NOTE: "FAIR" INDICATES FEW OR NO CLOUDS BELOW 12,000 FEET WITH NO
SIGNIFICANT WEATHER AND/OR OBSTRUCTIONS TO VISIBILITY.

* - THESE STATIONS ARE NOT NWS STATIONS...THUS NOT UNDER NWS
QUALITY CONTROL.  THEY ALSO DO NOT REPORT WEATHER SUCH
AS PRECIPITATION OR FOG.

IAZ001>003-012>014-020>022-031>034-043>046-260700-
   NORTHWEST IOWA

CITY           SKY/WX    TMP DP  RH WIND       PRES   REMARKS
CARROLL *      CLOUDY    63  63 100 NE3       29.95S
CHEROKEE *     LGT RAIN  57  57 100 NW3       29.96R
DENISON *      LGT RAIN  59  59 100 CALM      29.97R
LE MARS *      LGT RAIN  55  55 100 NW7       29.97S
ORANGE CITY *  RAIN      55  55 100 N8        29.97S
SHELDON *      LGT RAIN  55  54  94 NW7       29.96R
SIOUX CITY     LGT RAIN  55  55 100 NW9       29.98R
6HR MIN TEMP:  55; 6HR MAX TEMP:  57; 6HR PCP:  0.07;

SPENCER        LGT RAIN  58  56  93 NE6       29.95F
6HR MIN TEMP:  57; 6HR MAX TEMP:  58; 6HR PCP:  0.09;

STORM LAKE *   LGT RAIN  57  57 100 E7        29.95R
$$

IAZ055>058-069>071-079>083-090>094-260700-
   SOUTHWEST IOWA

CITY           SKY/WX    TMP DP  RH WIND       PRES   REMARKS
ATLANTIC *     CLOUDY    66  66 100 SE3       29.94S FOG
AUDUBON *      LGT RAIN  63  61  94 CALM      29.96S
CLARINDA *     MOCLDY    66  66 100 CALM      29.96F
COUNCIL BLFS * CLOUDY    59  59 100 NW7       29.96S
CRESTON *      LGT RAIN  66  66 100 SE3       29.97S
HARLAN  *      RAIN      63  63 100 CALM      29.98S
LAMONI         HVY RAIN  67  67 100 W5        29.97S FOG
6HR MIN TEMP:  66; 6HR MAX TEMP:  69; 6HR PCP:  0.28;

RED OAK *      CLOUDY    64  64 100 CALM      29.95F
SHENANDOAH *   CLOUDY    64  64 100 NE5       29.94F
$$

IAZ047>049-059>061-072>074-084-260700-
   CENTRAL IOWA

CITY           SKY/WX    TMP DP  RH WIND       PRES   REMARKS
AMES           CLOUDY    65  65 100 SW7       29.95R
6HR MIN TEMP:  64; 6HR MAX TEMP:  67; 6HR PCP:  0.22;

ANKENY *       CLOUDY    66  66 100 W7        29.95R
BOONE *        CLOUDY    66  66 100 CALM      29.95R FOG
CHARITON *     CLOUDY    66  64  94 W10G22    29.95R
DES MOINES     LGT RAIN  67  66  97 W7        29.94F FOG
6HR MIN TEMP:  67; 6HR MAX TEMP:  68; 6HR PCP:  0.62;

GRINNELL*      CLOUDY    65  63  92 CALM      29.93F
KNOXVILLE *    CLOUDY    66  63  88 CALM      29.91S
MARSHALLTOWN   CLOUDY    65  65 100 SE6       29.92S
6HR MIN TEMP:  65; 6HR MAX TEMP:  68; 6HR PCP:  0.37;

NEWTON *       CLOUDY    64  64 100 CALM      29.93S
PELLA *        CLOUDY    67  63  87 CALM      29.93S
PERRY *        RAIN      65  65  99 CALM      29.95F
$$

IAZ004>006-015-016-023>025-035-036-260700-
   NORTH CENTRAL IOWA

CITY           SKY/WX    TMP DP  RH WIND       PRES   REMARKS
ALGONA *       CLOUDY    59  59 100 N5        29.95S
CLARION *      CLOUDY    63  63 100 NE5       29.93F FOG
ESTHERVILLE    LGT RAIN  56  56 100 N5        29.95S
6HR MIN TEMP:  56; 6HR MAX TEMP:  57; 6HR PCP:  0.06;

FORT DODGE *   CLOUDY    60  60 100 N5        29.95S FOG
MASON CITY     CLOUDY    63  63 100 NW3       29.95S FOG
6HR MIN TEMP:  63; 6HR MAX TEMP:  64; 6HR PCP:  0.03;

FOREST CITY *  CLOUDY    61  61 100 N3        29.95S FOG
WEBSTER CITY * CLOUDY    63  63 100 CALM      29.92F FOG
IOWA FALLS *   CLOUDY    65  64  98 CALM      29.95R
$$

IAZ007>011-017>019-026>030-037>042-050>054-066-260700-
   NORTHEAST IOWA

CITY           SKY/WX    TMP DP  RH WIND       PRES   REMARKS
CEDAR RAPIDS   PTCLDY    67  66  97 CALM      29.92F
6HR MIN TEMP:  67; 6HR MAX TEMP:  82; 6HR PCP:  0.73;

CHARLES CITY * CLOUDY    64  64 100 CALM      29.93R
CLINTON *      CLOUDY   N/A N/A N/A N6        29.94R
DECORAH *      CLOUDY    64  64 100 CALM      29.91F
DUBUQUE        MOCLDY    66  65  96 N5        29.96S
6HR MIN TEMP:  66; 6HR MAX TEMP:  73;

MONTICELLO *   PTCLDY    66  64  94 NE3       29.93F
OELWEIN *      CLOUDY    66  66 100 S5        29.94R
WATERLOO       MOCLDY    65  64  97 SE7       29.91S
6HR MIN TEMP:  64; 6HR MAX TEMP:  66; 6HR PCP:  0.09;

$$

IAZ064-065-067-068-078-260700-
   EAST CENTRAL IOWA

CITY           SKY/WX    TMP DP  RH WIND       PRES   REMARKS
DAVENPORT      CLOUDY    71  65  81 W5        29.95R
6HR MIN TEMP:  70; 6HR MAX TEMP:  77;

MUSCATINE *    CLEAR     70  64  83 N6        29.93F
QUAD CITIES    CLOUDY    73  67  81 W3        29.92R
6HR MIN TEMP:  71; 6HR MAX TEMP:  77; 6HR PCP: TRACE;

$$

IAZ062-063-075>077-085>089-095>099-260700-
   SOUTHEAST IOWA

CITY           SKY/WX    TMP DP  RH WIND       PRES   REMARKS
BURLINGTON     CLOUDY    72  67  84 NW7       29.92R
6HR MIN TEMP:  70; 6HR MAX TEMP:  78; 6HR PCP: TRACE;

FAIRFIELD *    CLOUDY    68  64  88 E6        29.92F
FORT MADISON * MOCLDY    70  68  94 CALM      29.93R
KEOKUK *       MOCLDY    73  64  73 W7        29.93R
OSKALOOSA *      N/A     65  64  94 CALM      29.92S
OTTUMWA        PTCLDY    69  64  84 E7        29.91F
6HR MIN TEMP:  68; 6HR MAX TEMP:  81; 6HR PCP: TRACE;

WASHINGTON *   PTCLDY    68  66  94 NE5       29.93F
$$

ABBREVIATIONS USED IN REMARKS
   TC - TEMPERATURES IN CELSIUS
  WCI - WIND CHILL INDEX
   HX - HEAT INDEX
  VSB - VISIBILITY
$$





USA.gov is the U.S. government's official web portal to all federal, state and local government web resources and services.